Content
SEND FEEDBACK

Daily
Averages
Monthly
Summary
United States of America

CHESTERFIELD, MISSOURI


Home > North America > United States > Missouri
Elevation: 559 feet     Latitude: 38 41N     Longitude: 090 31W

WEATHER
 
SELECT A DAY
Number of Records: 203,643;   Date Range: 1/1/95 - 9/16/14
 
SHARE

PRINT THIS DATA

[ ← Previous Day ]
WEATHER ALMANAC - MAY 14, 2013
[ Next Day → ]
[ °C ]   °F
Weather ElementAverageHighLow
Temperature78.1 °F91.9 °F (2:51 pm)59 °F (5:51 am)
Dewpoint49.4 °F54 °F (10:51 am)44.1 °F (1:51 am)
Humidity39.5 %67 % (5:51 am)23 % (5:51 pm)
Barometer29.87 in29.98 in (1:51 am)29.78 in (6:51 pm)
Wind Speed11.5 mph18.4 mph (4:51 pm)
Wind Gust29.9 mph (3:51 pm)
Weather ElementAverage
Visibility10 mi
Wind DirectionSW (224.3 °)

Weather ElementTotal
Precipitation---
Cooling Degree Days10.5 (Base 65)
Growing Degree Days25.5 (Base 50)
Averaged from 23 records on May 14, 2013
WEATHER CONDITIONS BREAKOUT
WIND DIRECTION BREAKOUT
WEATHER BY HOUR - MAY 14, 2013
[ °C ]   °F
Local TimeTemperatureDewpointHumidityBarometerVisibilityWind DirectionWind SpeedGust SpeedPrecipitationEventsConditions
1:51 AM62.1 °F44.1 °F52 %29.98 in10.0 miSouth (180°)4.6 mphPartly Cloudy
2:51 AM62.1 °F45.0 °F53 %29.96 in10.0 miSSE (160°)8.1 mphScattered Clouds
3:51 AM61.0 °F46.0 °F58 %29.95 in10.0 miSouth (170°)5.8 mphPartly Cloudy
4:51 AM60.1 °F46.9 °F62 %29.94 in10.0 miSSE (160°)5.8 mphScattered Clouds
5:51 AM59.0 °F48.0 °F67 %29.92 in10.0 miSSE (160°)6.9 mphMostly Cloudy
6:51 AM60.1 °F48.9 °F67 %29.93 in10.0 miSouth (170°)4.6 mphMostly Cloudy
7:51 AM66.0 °F51.1 °F59 %29.91 in10.0 miSSW (200°)6.9 mphScattered Clouds
8:51 AM71.1 °F53.1 °F53 %29.90 in10.0 miSW (220°)9.2 mphPartly Cloudy
9:51 AM78.1 °F53.1 °F42 %29.88 in10.0 miWSW (250°)13.8 mphPartly Cloudy
10:51 AM80.1 °F54.0 °F40 %29.88 in10.0 miWSW (240°)13.8 mphPartly Cloudy
11:51 AM84.0 °F54.0 °F35 %29.88 in10.0 miWSW (250°)13.8 mph21.9 mphPartly Cloudy
12:51 PM87.8 °F53.6 °F31 %29.88 in10.0 miWSW (250°)15.0 mph21.9 mphPartly Cloudy
1:51 PM90.0 °F53.1 °F28 %29.84 in10.0 miWest (270°)13.8 mph20.7 mphPartly Cloudy
2:51 PM91.9 °F52.0 °F26 %29.83 in10.0 miWest (260°)17.3 mph23.0 mphPartly Cloudy
3:51 PM91.9 °F51.1 °F25 %29.81 in10.0 miWest (260°)16.1 mph29.9 mphPartly Cloudy
4:51 PM91.9 °F50.0 °F24 %29.81 in10.0 miWSW (250°)18.4 mph26.5 mphPartly Cloudy
5:51 PM91.9 °F48.9 °F23 %29.79 in10.0 miWSW (250°)17.3 mph23.0 mphPartly Cloudy
6:51 PM91.0 °F48.9 °F23 %29.78 in10.0 miWSW (250°)9.2 mph21.9 mphPartly Cloudy
7:51 PM88.0 °F48.0 °F25 %29.79 in10.0 miWSW (240°)15.0 mph21.9 mphPartly Cloudy
8:51 PM84.9 °F46.9 °F27 %29.81 in10.0 miWSW (240°)13.8 mphPartly Cloudy
9:51 PM84.0 °F46.0 °F26 %29.82 in10.0 miWSW (250°)15.0 mph23.0 mphPartly Cloudy
10:51 PM81.0 °F46.9 °F30 %29.83 in10.0 miWSW (240°)9.2 mphClear
11:51 PM79.0 °F46.9 °F32 %29.84 in10.0 miWSW (240°)10.4 mphClear
Hourly data recorded from KSTL, located miles away from Chesterfield, Missouri







STORIES FROM OUR PARTNERS